Date_Time,Julian_Date,Latitude,Longitude,Instrument_Depth,Water_Temperature
(yyyy-mm-dd hh:mn:ss UTC),(JD),(+ deg. North),(+ deg. East),(m),(deg. C)
1981-02-07 23:00:00 UTC,2444643.458333,29.7697,-93.3439,0046,10.2000
1981-02-07 23:30:00 UTC,2444643.479167,29.7697,-93.3439,0046,10.2000
1981-02-08 00:00:00 UTC,2444643.500000,29.7697,-93.3439,0046,10.2000
1981-02-08 00:30:00 UTC,2444643.520833,29.7697,-93.3439,0046,10.3000
1981-02-08 01:00:00 UTC,2444643.541667,29.7697,-93.3439,0046,10.3000
1981-02-08 01:30:00 UTC,2444643.562500,29.7697,-93.3439,0046,10.3000
1981-02-08 02:00:00 UTC,2444643.583333,29.7697,-93.3439,0046,10.3000
1981-02-08 02:30:00 UTC,2444643.604167,29.7697,-93.3439,0046,10.4000
1981-02-08 03:00:00 UTC,2444643.625000,29.7697,-93.3439,0046,10.4000
1981-02-08 03:30:00 UTC,2444643.645833,29.7697,-93.3439,0046,10.4000
1981-02-08 04:00:00 UTC,2444643.666667,29.7697,-93.3439,0046,10.4000
1981-02-08 04:30:00 UTC,2444643.687500,29.7697,-93.3439,0046,10.4000
1981-02-08 05:00:00 UTC,2444643.708333,29.7697,-93.3439,0046,10.4000
1981-02-08 05:30:00 UTC,2444643.729167,29.7697,-93.3439,0046,10.4000
1981-02-08 06:00:00 UTC,2444643.750000,29.7697,-93.3439,0046,10.3000
1981-02-08 06:30:00 UTC,2444643.770833,29.7697,-93.3439,0046,10.3000
1981-02-08 07:00:00 UTC,2444643.791667,29.7697,-93.3439,0046,10.3000
1981-02-08 07:30:00 UTC,2444643.812500,29.7697,-93.3439,0046,10.3000
1981-02-08 08:00:00 UTC,2444643.833333,29.7697,-93.3439,0046,10.2000
1981-02-08 08:30:00 UTC,2444643.854167,29.7697,-93.3439,0046,10.2000
1981-02-08 09:00:00 UTC,2444643.875000,29.7697,-93.3439,0046,10.1000
1981-02-08 09:30:00 UTC,2444643.895833,29.7697,-93.3439,0046,10.1000
1981-02-08 10:00:00 UTC,2444643.916667,29.7697,-93.3439,0046,10.1000
1981-02-08 10:30:00 UTC,2444643.937500,29.7697,-93.3439,0046,10.2000
1981-02-08 11:00:00 UTC,2444643.958333,29.7697,-93.3439,0046,10.2000
1981-02-08 11:30:00 UTC,2444643.979167,29.7697,-93.3439,0046,10.2000
1981-02-08 12:00:00 UTC,2444644.000000,29.7697,-93.3439,0046,10.3000
1981-02-08 12:30:00 UTC,2444644.020833,29.7697,-93.3439,0046,10.3000
1981-02-08 13:00:00 UTC,2444644.041667,29.7697,-93.3439,0046,10.3000
1981-02-08 13:30:00 UTC,2444644.062500,29.7697,-93.3439,0046,10.3000
1981-02-08 14:00:00 UTC,2444644.083333,29.7697,-93.3439,0046,10.3000
1981-02-08 14:30:00 UTC,2444644.104167,29.7697,-93.3439,0046,10.3000
1981-02-08 15:00:00 UTC,2444644.125000,29.7697,-93.3439,0046,10.2000
1981-02-08 15:30:00 UTC,2444644.145833,29.7697,-93.3439,0046,10.1000
1981-02-08 16:00:00 UTC,2444644.166667,29.7697,-93.3439,0046,10.1000
1981-02-08 16:30:00 UTC,2444644.187500,29.7697,-93.3439,0046,10.0000
1981-02-08 17:00:00 UTC,2444644.208333,29.7697,-93.3439,0046,9.9000
1981-02-08 17:30:00 UTC,2444644.229167,29.7697,-93.3439,0046,9.9000
1981-02-08 18:00:00 UTC,2444644.250000,29.7697,-93.3439,0046,9.8000
1981-02-08 18:30:00 UTC,2444644.270833,29.7697,-93.3439,0046,9.8000
1981-02-08 19:00:00 UTC,2444644.291667,29.7697,-93.3439,0046,9.8000
1981-02-08 19:30:00 UTC,2444644.312500,29.7697,-93.3439,0046,9.8000
1981-02-08 20:00:00 UTC,2444644.333333,29.7697,-93.3439,0046,9.9000
1981-02-08 20:30:00 UTC,2444644.354167,29.7697,-93.3439,0046,9.9000
1981-02-08 21:00:00 UTC,2444644.375000,29.7697,-93.3439,0046,9.9000
1981-02-08 21:30:00 UTC,2444644.395833,29.7697,-93.3439,0046,9.9000
1981-02-08 22:00:00 UTC,2444644.416667,29.7697,-93.3439,0046,9.9000
1981-02-08 22:30:00 UTC,2444644.437500,29.7697,-93.3439,0046,10.0000
1981-02-08 23:00:00 UTC,2444644.458333,29.7697,-93.3439,0046,10.2000
1981-02-08 23:30:00 UTC,2444644.479167,29.7697,-93.3439,0046,10.6000
1981-02-09 00:00:00 UTC,2444644.500000,29.7697,-93.3439,0046,10.8000
1981-02-09 00:30:00 UTC,2444644.520833,29.7697,-93.3439,0046,10.9000
1981-02-09 01:00:00 UTC,2444644.541667,29.7697,-93.3439,0046,10.9000
1981-02-09 01:30:00 UTC,2444644.562500,29.7697,-93.3439,0046,10.9000
1981-02-09 02:00:00 UTC,2444644.583333,29.7697,-93.3439,0046,10.9000
1981-02-09 02:30:00 UTC,2444644.604167,29.7697,-93.3439,0046,10.9000
1981-02-09 03:00:00 UTC,2444644.625000,29.7697,-93.3439,0046,10.8000
1981-02-09 03:30:00 UTC,2444644.645833,29.7697,-93.3439,0046,10.8000
1981-02-09 04:00:00 UTC,2444644.666667,29.7697,-93.3439,0046,10.8000
1981-02-09 04:30:00 UTC,2444644.687500,29.7697,-93.3439,0046,10.8000
1981-02-09 05:00:00 UTC,2444644.708333,29.7697,-93.3439,0046,10.8000
1981-02-09 05:30:00 UTC,2444644.729167,29.7697,-93.3439,0046,10.8000
1981-02-09 06:00:00 UTC,2444644.750000,29.7697,-93.3439,0046,10.8000
1981-02-09 06:30:00 UTC,2444644.770833,29.7697,-93.3439,0046,10.7000
1981-02-09 07:00:00 UTC,2444644.791667,29.7697,-93.3439,0046,10.7000
1981-02-09 07:30:00 UTC,2444644.812500,29.7697,-93.3439,0046,10.5000
1981-02-09 08:00:00 UTC,2444644.833333,29.7697,-93.3439,0046,10.4000
1981-02-09 08:30:00 UTC,2444644.854167,29.7697,-93.3439,0046,10.3000
1981-02-09 09:00:00 UTC,2444644.875000,29.7697,-93.3439,0046,10.2000
1981-02-09 09:30:00 UTC,2444644.895833,29.7697,-93.3439,0046,10.2000
1981-02-09 10:00:00 UTC,2444644.916667,29.7697,-93.3439,0046,10.2000
1981-02-09 10:30:00 UTC,2444644.937500,29.7697,-93.3439,0046,10.2000
1981-02-09 11:00:00 UTC,2444644.958333,29.7697,-93.3439,0046,10.2000
1981-02-09 11:30:00 UTC,2444644.979167,29.7697,-93.3439,0046,10.2000
1981-02-09 12:00:00 UTC,2444645.000000,29.7697,-93.3439,0046,10.2000
1981-02-09 12:30:00 UTC,2444645.020833,29.7697,-93.3439,0046,10.3000
1981-02-09 13:00:00 UTC,2444645.041667,29.7697,-93.3439,0046,10.4000
1981-02-09 13:30:00 UTC,2444645.062500,29.7697,-93.3439,0046,10.6000
1981-02-09 14:00:00 UTC,2444645.083333,29.7697,-93.3439,0046,10.6000
1981-02-09 14:30:00 UTC,2444645.104167,29.7697,-93.3439,0046,10.6000
1981-02-09 15:00:00 UTC,2444645.125000,29.7697,-93.3439,0046,10.6000
1981-02-09 15:30:00 UTC,2444645.145833,29.7697,-93.3439,0046,10.6000
1981-02-09 16:00:00 UTC,2444645.166667,29.7697,-93.3439,0046,10.6000
1981-02-09 16:30:00 UTC,2444645.187500,29.7697,-93.3439,0046,10.6000
1981-02-09 17:00:00 UTC,2444645.208333,29.7697,-93.3439,0046,10.6000
1981-02-09 17:30:00 UTC,2444645.229167,29.7697,-93.3439,0046,10.6000
1981-02-09 18:00:00 UTC,2444645.250000,29.7697,-93.3439,0046,10.6000
1981-02-09 18:30:00 UTC,2444645.270833,29.7697,-93.3439,0046,10.6000
1981-02-09 19:00:00 UTC,2444645.291667,29.7697,-93.3439,0046,10.6000
1981-02-09 19:30:00 UTC,2444645.312500,29.7697,-93.3439,0046,10.6000
1981-02-09 20:00:00 UTC,2444645.333333,29.7697,-93.3439,0046,10.6000
1981-02-09 20:30:00 UTC,2444645.354167,29.7697,-93.3439,0046,10.6000
1981-02-09 21:00:00 UTC,2444645.375000,29.7697,-93.3439,0046,10.6000
1981-02-09 21:30:00 UTC,2444645.395833,29.7697,-93.3439,0046,10.7000
1981-02-09 22:00:00 UTC,2444645.416667,29.7697,-93.3439,0046,10.8000
1981-02-09 22:30:00 UTC,2444645.437500,29.7697,-93.3439,0046,11.0000
1981-02-09 23:00:00 UTC,2444645.458333,29.7697,-93.3439,0046,11.1000
1981-02-09 23:30:00 UTC,2444645.479167,29.7697,-93.3439,0046,11.2000
1981-02-10 00:00:00 UTC,2444645.500000,29.7697,-93.3439,0046,11.2000
1981-02-10 00:30:00 UTC,2444645.520833,29.7697,-93.3439,0046,11.2000
1981-02-10 01:00:00 UTC,2444645.541667,29.7697,-93.3439,0046,11.2000
1981-02-10 01:30:00 UTC,2444645.562500,29.7697,-93.3439,0046,11.2000
1981-02-10 02:00:00 UTC,2444645.583333,29.7697,-93.3439,0046,11.2000
1981-02-10 02:30:00 UTC,2444645.604167,29.7697,-93.3439,0046,11.1000
1981-02-10 03:00:00 UTC,2444645.625000,29.7697,-93.3439,0046,11.1000
1981-02-10 03:30:00 UTC,2444645.645833,29.7697,-93.3439,0046,11.2000
1981-02-10 04:00:00 UTC,2444645.666667,29.7697,-93.3439,0046,11.2000
1981-02-10 04:30:00 UTC,2444645.687500,29.7697,-93.3439,0046,11.2000
1981-02-10 05:00:00 UTC,2444645.708333,29.7697,-93.3439,0046,11.1000
1981-02-10 05:30:00 UTC,2444645.729167,29.7697,-93.3439,0046,11.1000
1981-02-10 06:00:00 UTC,2444645.750000,29.7697,-93.3439,0046,11.1000
1981-02-10 06:30:00 UTC,2444645.770833,29.7697,-93.3439,0046,11.2000
1981-02-10 07:00:00 UTC,2444645.791667,29.7697,-93.3439,0046,11.2000
1981-02-10 07:30:00 UTC,2444645.812500,29.7697,-93.3439,0046,11.2000
1981-02-10 08:00:00 UTC,2444645.833333,29.7697,-93.3439,0046,11.2000
1981-02-10 08:30:00 UTC,2444645.854167,29.7697,-93.3439,0046,11.2000
1981-02-10 09:00:00 UTC,2444645.875000,29.7697,-93.3439,0046,11.2000
1981-02-10 09:30:00 UTC,2444645.895833,29.7697,-93.3439,0046,11.2000
1981-02-10 10:00:00 UTC,2444645.916667,29.7697,-93.3439,0046,11.2000
1981-02-10 10:30:00 UTC,2444645.937500,29.7697,-93.3439,0046,11.2000
1981-02-10 11:00:00 UTC,2444645.958333,29.7697,-93.3439,0046,11.2000
1981-02-10 11:30:00 UTC,2444645.979167,29.7697,-93.3439,0046,11.2000
1981-02-10 12:00:00 UTC,2444646.000000,29.7697,-93.3439,0046,11.2000
1981-02-10 12:30:00 UTC,2444646.020833,29.7697,-93.3439,0046,11.2000
1981-02-10 13:00:00 UTC,2444646.041667,29.7697,-93.3439,0046,11.3000
1981-02-10 13:30:00 UTC,2444646.062500,29.7697,-93.3439,0046,11.3000
1981-02-10 14:00:00 UTC,2444646.083333,29.7697,-93.3439,0046,11.3000
1981-02-10 14:30:00 UTC,2444646.104167,29.7697,-93.3439,0046,11.3000
1981-02-10 15:00:00 UTC,2444646.125000,29.7697,-93.3439,0046,11.3000
1981-02-10 15:30:00 UTC,2444646.145833,29.7697,-93.3439,0046,11.3000
1981-02-10 16:00:00 UTC,2444646.166667,29.7697,-93.3439,0046,11.3000
1981-02-10 16:30:00 UTC,2444646.187500,29.7697,-93.3439,0046,11.3000
1981-02-10 17:00:00 UTC,2444646.208333,29.7697,-93.3439,0046,11.3000
1981-02-10 17:30:00 UTC,2444646.229167,29.7697,-93.3439,0046,11.3000
1981-02-10 18:00:00 UTC,2444646.250000,29.7697,-93.3439,0046,11.3000
1981-02-10 18:30:00 UTC,2444646.270833,29.7697,-93.3439,0046,11.3000
1981-02-10 19:00:00 UTC,2444646.291667,29.7697,-93.3439,0046,11.4000
1981-02-10 19:30:00 UTC,2444646.312500,29.7697,-93.3439,0046,11.5000
1981-02-10 20:00:00 UTC,2444646.333333,29.7697,-93.3439,0046,11.5000
1981-02-10 20:30:00 UTC,2444646.354167,29.7697,-93.3439,0046,11.6000
1981-02-10 21:00:00 UTC,2444646.375000,29.7697,-93.3439,0046,11.6000
1981-02-10 21:30:00 UTC,2444646.395833,29.7697,-93.3439,0046,11.6000
1981-02-10 22:00:00 UTC,2444646.416667,29.7697,-93.3439,0046,11.6000
1981-02-10 22:30:00 UTC,2444646.437500,29.7697,-93.3439,0046,11.7000
1981-02-10 23:00:00 UTC,2444646.458333,29.7697,-93.3439,0046,11.7000
1981-02-10 23:30:00 UTC,2444646.479167,29.7697,-93.3439,0046,11.6000
1981-02-11 00:00:00 UTC,2444646.500000,29.7697,-93.3439,0046,11.6000
1981-02-11 00:30:00 UTC,2444646.520833,29.7697,-93.3439,0046,11.6000
1981-02-11 01:00:00 UTC,2444646.541667,29.7697,-93.3439,0046,11.7000
1981-02-11 01:30:00 UTC,2444646.562500,29.7697,-93.3439,0046,11.7000
1981-02-11 02:00:00 UTC,2444646.583333,29.7697,-93.3439,0046,11.7000
1981-02-11 02:30:00 UTC,2444646.604167,29.7697,-93.3439,0046,11.7000
1981-02-11 03:00:00 UTC,2444646.625000,29.7697,-93.3439,0046,11.7000
1981-02-11 03:30:00 UTC,2444646.645833,29.7697,-93.3439,0046,11.7000
1981-02-11 04:00:00 UTC,2444646.666667,29.7697,-93.3439,0046,11.7000
1981-02-11 04:30:00 UTC,2444646.687500,29.7697,-93.3439,0046,11.8000
1981-02-11 05:00:00 UTC,2444646.708333,29.7697,-93.3439,0046,11.8000
1981-02-11 05:30:00 UTC,2444646.729167,29.7697,-93.3439,0046,11.9000
1981-02-11 06:00:00 UTC,2444646.750000,29.7697,-93.3439,0046,11.9000
1981-02-11 06:30:00 UTC,2444646.770833,29.7697,-93.3439,0046,11.9000
1981-02-11 07:00:00 UTC,2444646.791667,29.7697,-93.3439,0046,11.9000
1981-02-11 07:30:00 UTC,2444646.812500,29.7697,-93.3439,0046,11.9000
1981-02-11 08:00:00 UTC,2444646.833333,29.7697,-93.3439,0046,11.7000
1981-02-11 08:30:00 UTC,2444646.854167,29.7697,-93.3439,0046,11.6000
1981-02-11 09:00:00 UTC,2444646.875000,29.7697,-93.3439,0046,11.4000
1981-02-11 09:30:00 UTC,2444646.895833,29.7697,-93.3439,0046,11.3000
1981-02-11 10:00:00 UTC,2444646.916667,29.7697,-93.3439,0046,11.1000
1981-02-11 10:30:00 UTC,2444646.937500,29.7697,-93.3439,0046,10.9000
1981-02-11 11:00:00 UTC,2444646.958333,29.7697,-93.3439,0046,10.7000
1981-02-11 11:30:00 UTC,2444646.979167,29.7697,-93.3439,0046,10.5000
1981-02-11 12:00:00 UTC,2444647.000000,29.7697,-93.3439,0046,10.3000
1981-02-11 12:30:00 UTC,2444647.020833,29.7697,-93.3439,0046,10.1000
1981-02-11 13:00:00 UTC,2444647.041667,29.7697,-93.3439,0046,9.9000
1981-02-11 13:30:00 UTC,2444647.062500,29.7697,-93.3439,0046,9.7000
1981-02-11 14:00:00 UTC,2444647.083333,29.7697,-93.3439,0046,9.5000
1981-02-11 14:30:00 UTC,2444647.104167,29.7697,-93.3439,0046,9.4000
1981-02-11 15:00:00 UTC,2444647.125000,29.7697,-93.3439,0046,9.3000
1981-02-11 15:30:00 UTC,2444647.145833,29.7697,-93.3439,0046,9.2000
1981-02-11 16:00:00 UTC,2444647.166667,29.7697,-93.3439,0046,9.1000
1981-02-11 16:30:00 UTC,2444647.187500,29.7697,-93.3439,0046,9.0000
1981-02-11 17:00:00 UTC,2444647.208333,29.7697,-93.3439,0046,8.8000
1981-02-11 17:30:00 UTC,2444647.229167,29.7697,-93.3439,0046,8.8000
1981-02-11 18:00:00 UTC,2444647.250000,29.7697,-93.3439,0046,8.7000
1981-02-11 18:30:00 UTC,2444647.270833,29.7697,-93.3439,0046,8.7000
1981-02-11 19:00:00 UTC,2444647.291667,29.7697,-93.3439,0046,8.7000
1981-02-11 19:30:00 UTC,2444647.312500,29.7697,-93.3439,0046,8.6000
1981-02-11 20:00:00 UTC,2444647.333333,29.7697,-93.3439,0046,8.6000
1981-02-11 20:30:00 UTC,2444647.354167,29.7697,-93.3439,0046,8.6000
1981-02-11 21:00:00 UTC,2444647.375000,29.7697,-93.3439,0046,8.5000
1981-02-11 21:30:00 UTC,2444647.395833,29.7697,-93.3439,0046,8.5000
1981-02-11 22:00:00 UTC,2444647.416667,29.7697,-93.3439,0046,8.7000
1981-02-11 22:30:00 UTC,2444647.437500,29.7697,-93.3439,0046,8.9000
1981-02-11 23:00:00 UTC,2444647.458333,29.7697,-93.3439,0046,8.9000
1981-02-11 23:30:00 UTC,2444647.479167,29.7697,-93.3439,0046,8.8000
1981-02-12 00:00:00 UTC,2444647.500000,29.7697,-93.3439,0046,8.8000
1981-02-12 00:30:00 UTC,2444647.520833,29.7697,-93.3439,0046,8.6000
1981-02-12 01:00:00 UTC,2444647.541667,29.7697,-93.3439,0046,8.6000
1981-02-12 01:30:00 UTC,2444647.562500,29.7697,-93.3439,0046,8.6000
1981-02-12 02:00:00 UTC,2444647.583333,29.7697,-93.3439,0046,8.7000
1981-02-12 02:30:00 UTC,2444647.604167,29.7697,-93.3439,0046,8.7000
1981-02-12 03:00:00 UTC,2444647.625000,29.7697,-93.3439,0046,8.7000
1981-02-12 03:30:00 UTC,2444647.645833,29.7697,-93.3439,0046,8.7000
1981-02-12 04:00:00 UTC,2444647.666667,29.7697,-93.3439,0046,8.6000
1981-02-12 04:30:00 UTC,2444647.687500,29.7697,-93.3439,0046,8.5000
1981-02-12 05:00:00 UTC,2444647.708333,29.7697,-93.3439,0046,8.5000
1981-02-12 05:30:00 UTC,2444647.729167,29.7697,-93.3439,0046,8.6000
1981-02-12 06:00:00 UTC,2444647.750000,29.7697,-93.3439,0046,8.9000
1981-02-12 06:30:00 UTC,2444647.770833,29.7697,-93.3439,0046,9.1000
1981-02-12 07:00:00 UTC,2444647.791667,29.7697,-93.3439,0046,9.1000
1981-02-12 07:30:00 UTC,2444647.812500,29.7697,-93.3439,0046,9.1000
1981-02-12 08:00:00 UTC,2444647.833333,29.7697,-93.3439,0046,9.1000
1981-02-12 08:30:00 UTC,2444647.854167,29.7697,-93.3439,0046,8.9000
1981-02-12 09:00:00 UTC,2444647.875000,29.7697,-93.3439,0046,8.8000
1981-02-12 09:30:00 UTC,2444647.895833,29.7697,-93.3439,0046,8.7000
1981-02-12 10:00:00 UTC,2444647.916667,29.7697,-93.3439,0046,8.5000
1981-02-12 10:30:00 UTC,2444647.937500,29.7697,-93.3439,0046,8.2000
1981-02-12 11:00:00 UTC,2444647.958333,29.7697,-93.3439,0046,7.9000
1981-02-12 11:30:00 UTC,2444647.979167,29.7697,-93.3439,0046,7.6000
1981-02-12 12:00:00 UTC,2444648.000000,29.7697,-93.3439,0046,7.3000
1981-02-12 12:30:00 UTC,2444648.020833,29.7697,-93.3439,0046,7.2000
1981-02-12 13:00:00 UTC,2444648.041667,29.7697,-93.3439,0046,7.1000
1981-02-12 13:30:00 UTC,2444648.062500,29.7697,-93.3439,0046,7.0000
1981-02-12 14:00:00 UTC,2444648.083333,29.7697,-93.3439,0046,6.9000
1981-02-12 14:30:00 UTC,2444648.104167,29.7697,-93.3439,0046,7.2000
1981-02-12 15:00:00 UTC,2444648.125000,29.7697,-93.3439,0046,7.9000
1981-02-12 15:30:00 UTC,2444648.145833,29.7697,-93.3439,0046,8.4000
1981-02-12 16:00:00 UTC,2444648.166667,29.7697,-93.3439,0046,8.5000
1981-02-12 16:30:00 UTC,2444648.187500,29.7697,-93.3439,0046,8.6000
1981-02-12 17:00:00 UTC,2444648.208333,29.7697,-93.3439,0046,8.6000
1981-02-12 17:30:00 UTC,2444648.229167,29.7697,-93.3439,0046,8.6000
1981-02-12 18:00:00 UTC,2444648.250000,29.7697,-93.3439,0046,8.6000
1981-02-12 18:30:00 UTC,2444648.270833,29.7697,-93.3439,0046,8.7000
1981-02-12 19:00:00 UTC,2444648.291667,29.7697,-93.3439,0046,8.7000
1981-02-12 19:30:00 UTC,2444648.312500,29.7697,-93.3439,0046,8.8000
1981-02-12 20:00:00 UTC,2444648.333333,29.7697,-93.3439,0046,8.8000
1981-02-12 20:30:00 UTC,2444648.354167,29.7697,-93.3439,0046,8.8000
1981-02-12 21:00:00 UTC,2444648.375000,29.7697,-93.3439,0046,8.8000
1981-02-12 21:30:00 UTC,2444648.395833,29.7697,-93.3439,0046,8.8000
1981-02-12 22:00:00 UTC,2444648.416667,29.7697,-93.3439,0046,8.8000
1981-02-12 22:30:00 UTC,2444648.437500,29.7697,-93.3439,0046,8.8000
1981-02-12 23:00:00 UTC,2444648.458333,29.7697,-93.3439,0046,8.8000
1981-02-12 23:30:00 UTC,2444648.479167,29.7697,-93.3439,0046,8.8000
1981-02-13 00:00:00 UTC,2444648.500000,29.7697,-93.3439,0046,8.7000
1981-02-13 00:30:00 UTC,2444648.520833,29.7697,-93.3439,0046,8.8000
1981-02-13 01:00:00 UTC,2444648.541667,29.7697,-93.3439,0046,8.7000
1981-02-13 01:30:00 UTC,2444648.562500,29.7697,-93.3439,0046,8.7000
1981-02-13 02:00:00 UTC,2444648.583333,29.7697,-93.3439,0046,8.6000
1981-02-13 02:30:00 UTC,2444648.604167,29.7697,-93.3439,0046,8.5000
1981-02-13 03:00:00 UTC,2444648.625000,29.7697,-93.3439,0046,8.5000
1981-02-13 03:30:00 UTC,2444648.645833,29.7697,-93.3439,0046,8.5000
1981-02-13 04:00:00 UTC,2444648.666667,29.7697,-93.3439,0046,8.5000
1981-02-13 04:30:00 UTC,2444648.687500,29.7697,-93.3439,0046,8.5000
1981-02-13 05:00:00 UTC,2444648.708333,29.7697,-93.3439,0046,8.4000
1981-02-13 05:30:00 UTC,2444648.729167,29.7697,-93.3439,0046,8.4000
1981-02-13 06:00:00 UTC,2444648.750000,29.7697,-93.3439,0046,8.3000
1981-02-13 06:30:00 UTC,2444648.770833,29.7697,-93.3439,0046,8.3000
1981-02-13 07:00:00 UTC,2444648.791667,29.7697,-93.3439,0046,8.4000
1981-02-13 07:30:00 UTC,2444648.812500,29.7697,-93.3439,0046,8.4000
1981-02-13 08:00:00 UTC,2444648.833333,29.7697,-93.3439,0046,8.4000
1981-02-13 08:30:00 UTC,2444648.854167,29.7697,-93.3439,0046,8.4000
1981-02-13 09:00:00 UTC,2444648.875000,29.7697,-93.3439,0046,8.5000
1981-02-13 09:30:00 UTC,2444648.895833,29.7697,-93.3439,0046,8.4000
1981-02-13 10:00:00 UTC,2444648.916667,29.7697,-93.3439,0046,8.3000
1981-02-13 10:30:00 UTC,2444648.937500,29.7697,-93.3439,0046,8.1000
1981-02-13 11:00:00 UTC,2444648.958333,29.7697,-93.3439,0046,8.0000
1981-02-13 11:30:00 UTC,2444648.979167,29.7697,-93.3439,0046,7.8000
1981-02-13 12:00:00 UTC,2444649.000000,29.7697,-93.3439,0046,7.5000
1981-02-13 12:30:00 UTC,2444649.020833,29.7697,-93.3439,0046,7.1000
1981-02-13 13:00:00 UTC,2444649.041667,29.7697,-93.3439,0046,6.9000
1981-02-13 13:30:00 UTC,2444649.062500,29.7697,-93.3439,0046,6.7000
1981-02-13 14:00:00 UTC,2444649.083333,29.7697,-93.3439,0046,6.5000
1981-02-13 14:30:00 UTC,2444649.104167,29.7697,-93.3439,0046,6.3000
1981-02-13 15:00:00 UTC,2444649.125000,29.7697,-93.3439,0046,6.3000
1981-02-13 15:30:00 UTC,2444649.145833,29.7697,-93.3439,0046,6.3000
1981-02-13 16:00:00 UTC,2444649.166667,29.7697,-93.3439,0046,6.3000
1981-02-13 16:30:00 UTC,2444649.187500,29.7697,-93.3439,0046,6.7000
1981-02-13 17:00:00 UTC,2444649.208333,29.7697,-93.3439,0046,7.4000
1981-02-13 17:30:00 UTC,2444649.229167,29.7697,-93.3439,0046,7.9000
1981-02-13 18:00:00 UTC,2444649.250000,29.7697,-93.3439,0046,8.0000
1981-02-13 18:30:00 UTC,2444649.270833,29.7697,-93.3439,0046,8.1000
1981-02-13 19:00:00 UTC,2444649.291667,29.7697,-93.3439,0046,8.1000
1981-02-13 19:30:00 UTC,2444649.312500,29.7697,-93.3439,0046,8.2000
1981-02-13 20:00:00 UTC,2444649.333333,29.7697,-93.3439,0046,8.1000
1981-02-13 20:30:00 UTC,2444649.354167,29.7697,-93.3439,0046,8.1000
1981-02-13 21:00:00 UTC,2444649.375000,29.7697,-93.3439,0046,8.1000
1981-02-13 21:30:00 UTC,2444649.395833,29.7697,-93.3439,0046,8.1000
1981-02-13 22:00:00 UTC,2444649.416667,29.7697,-93.3439,0046,8.2000
1981-02-13 22:30:00 UTC,2444649.437500,29.7697,-93.3439,0046,8.2000
1981-02-13 23:00:00 UTC,2444649.458333,29.7697,-93.3439,0046,8.2000
1981-02-13 23:30:00 UTC,2444649.479167,29.7697,-93.3439,0046,8.2000
1981-02-14 00:00:00 UTC,2444649.500000,29.7697,-93.3439,0046,8.2000
1981-02-14 00:30:00 UTC,2444649.520833,29.7697,-93.3439,0046,8.2000
1981-02-14 01:00:00 UTC,2444649.541667,29.7697,-93.3439,0046,8.2000
1981-02-14 01:30:00 UTC,2444649.562500,29.7697,-93.3439,0046,8.2000
1981-02-14 02:00:00 UTC,2444649.583333,29.7697,-93.3439,0046,8.2000
1981-02-14 02:30:00 UTC,2444649.604167,29.7697,-93.3439,0046,8.2000
1981-02-14 03:00:00 UTC,2444649.625000,29.7697,-93.3439,0046,8.2000
1981-02-14 03:30:00 UTC,2444649.645833,29.7697,-93.3439,0046,8.2000
1981-02-14 04:00:00 UTC,2444649.666667,29.7697,-93.3439,0046,8.2000
1981-02-14 04:30:00 UTC,2444649.687500,29.7697,-93.3439,0046,8.2000
1981-02-14 05:00:00 UTC,2444649.708333,29.7697,-93.3439,0046,8.2000
1981-02-14 05:30:00 UTC,2444649.729167,29.7697,-93.3439,0046,8.2000
1981-02-14 06:00:00 UTC,2444649.750000,29.7697,-93.3439,0046,8.2000
1981-02-14 06:30:00 UTC,2444649.770833,29.7697,-93.3439,0046,8.2000
1981-02-14 07:00:00 UTC,2444649.791667,29.7697,-93.3439,0046,8.2000
1981-02-14 07:30:00 UTC,2444649.812500,29.7697,-93.3439,0046,8.0000
1981-02-14 08:00:00 UTC,2444649.833333,29.7697,-93.3439,0046,7.8000
1981-02-14 08:30:00 UTC,2444649.854167,29.7697,-93.3439,0046,7.6000
1981-02-14 09:00:00 UTC,2444649.875000,29.7697,-93.3439,0046,7.4000
1981-02-14 09:30:00 UTC,2444649.895833,29.7697,-93.3439,0046,7.2000
1981-02-14 10:00:00 UTC,2444649.916667,29.7697,-93.3439,0046,7.1000
1981-02-14 10:30:00 UTC,2444649.937500,29.7697,-93.3439,0046,6.9000
1981-02-14 11:00:00 UTC,2444649.958333,29.7697,-93.3439,0046,6.6000
1981-02-14 11:30:00 UTC,2444649.979167,29.7697,-93.3439,0046,6.5000
1981-02-14 12:00:00 UTC,2444650.000000,29.7697,-93.3439,0046,6.2000
1981-02-14 12:30:00 UTC,2444650.020833,29.7697,-93.3439,0046,6.0000
1981-02-14 13:00:00 UTC,2444650.041667,29.7697,-93.3439,0046,5.9000
1981-02-14 13:30:00 UTC,2444650.062500,29.7697,-93.3439,0046,5.8000
1981-02-14 14:00:00 UTC,2444650.083333,29.7697,-93.3439,0046,5.7000
1981-02-14 14:30:00 UTC,2444650.104167,29.7697,-93.3439,0046,5.7000
1981-02-14 15:00:00 UTC,2444650.125000,29.7697,-93.3439,0046,5.7000
1981-02-14 15:30:00 UTC,2444650.145833,29.7697,-93.3439,0046,5.6000
1981-02-14 16:00:00 UTC,2444650.166667,29.7697,-93.3439,0046,5.6000
1981-02-14 16:30:00 UTC,2444650.187500,29.7697,-93.3439,0046,5.6000
1981-02-14 17:00:00 UTC,2444650.208333,29.7697,-93.3439,0046,5.7000
1981-02-14 17:30:00 UTC,2444650.229167,29.7697,-93.3439,0046,5.9000
1981-02-14 18:00:00 UTC,2444650.250000,29.7697,-93.3439,0046,6.7000
1981-02-14 18:30:00 UTC,2444650.270833,29.7697,-93.3439,0046,7.6000
1981-02-14 19:00:00 UTC,2444650.291667,29.7697,-93.3439,0046,8.1000
1981-02-14 19:30:00 UTC,2444650.312500,29.7697,-93.3439,0046,8.2000
1981-02-14 20:00:00 UTC,2444650.333333,29.7697,-93.3439,0046,8.3000
1981-02-14 20:30:00 UTC,2444650.354167,29.7697,-93.3439,0046,8.4000
1981-02-14 21:00:00 UTC,2444650.375000,29.7697,-93.3439,0046,8.5000
1981-02-14 21:30:00 UTC,2444650.395833,29.7697,-93.3439,0046,8.5000
1981-02-14 22:00:00 UTC,2444650.416667,29.7697,-93.3439,0046,8.5000
1981-02-14 22:30:00 UTC,2444650.437500,29.7697,-93.3439,0046,8.5000
1981-02-14 23:00:00 UTC,2444650.458333,29.7697,-93.3439,0046,8.5000
1981-02-14 23:30:00 UTC,2444650.479167,29.7697,-93.3439,0046,8.5000
1981-02-15 00:00:00 UTC,2444650.500000,29.7697,-93.3439,0046,8.5000
1981-02-15 00:30:00 UTC,2444650.520833,29.7697,-93.3439,0046,8.5000
1981-02-15 01:00:00 UTC,2444650.541667,29.7697,-93.3439,0046,8.5000
1981-02-15 01:30:00 UTC,2444650.562500,29.7697,-93.3439,0046,8.5000
1981-02-15 02:00:00 UTC,2444650.583333,29.7697,-93.3439,0046,8.5000
1981-02-15 02:30:00 UTC,2444650.604167,29.7697,-93.3439,0046,8.5000
1981-02-15 03:00:00 UTC,2444650.625000,29.7697,-93.3439,0046,8.5000
1981-02-15 03:30:00 UTC,2444650.645833,29.7697,-93.3439,0046,8.5000
1981-02-15 04:00:00 UTC,2444650.666667,29.7697,-93.3439,0046,8.5000
1981-02-15 04:30:00 UTC,2444650.687500,29.7697,-93.3439,0046,8.5000